Time,TemperatureF,DewpointF,PressureIn,WindDirection,WindDirectionDegrees,WindSpeedMPH,WindSpeedGustMPH,Humidity,HourlyPrecipIn,Conditions,Clouds,dailyrainin,SoftwareType,DateUTC
2013-09-06 00:01:00,77.2,74.0,30.02,West,279,3.0,5.0,90,0.00,,,0.00,WUHU216DAVISVP2,2013-09-06 04:01:00,
2013-09-06 00:06:00,77.4,73.9,30.02,WNW,302,5.0,6.0,89,0.00,,,0.00,WUHU216DAVISVP2,2013-09-06 04:06:00,
2013-09-06 00:11:00,77.6,74.4,30.02,WNW,302,3.0,6.0,90,0.00,,,0.00,WUHU216DAVISVP2,2013-09-06 04:11:00,
2013-09-06 00:16:00,77.6,74.4,30.02,NW,307,6.0,6.0,90,0.00,,,0.00,WUHU216DAVISVP2,2013-09-06 04:16:00,
2013-09-06 00:21:00,77.6,74.4,30.02,WNW,302,4.0,6.0,90,0.00,,,0.00,WUHU216DAVISVP2,2013-09-06 04:21:00,
2013-09-06 00:26:00,77.6,74.4,30.01,WNW,287,3.0,6.0,90,0.00,,,0.00,WUHU216DAVISVP2,2013-09-06 04:26:00,
2013-09-06 00:31:00,77.6,74.4,30.01,WNW,298,4.0,6.0,90,0.00,,,0.00,WUHU216DAVISVP2,2013-09-06 04:31:00,
2013-09-06 00:36:00,77.7,74.8,30.01,WNW,283,3.0,6.0,91,0.00,,,0.00,WUHU216DAVISVP2,2013-09-06 04:36:00,
2013-09-06 00:41:00,77.7,74.8,30.01,WNW,290,4.0,6.0,91,0.00,,,0.00,WUHU216DAVISVP2,2013-09-06 04:41:00,
2013-09-06 00:46:00,77.5,74.7,30.01,WNW,291,4.0,6.0,91,0.00,,,0.00,WUHU216DAVISVP2,2013-09-06 04:46:00,
2013-09-06 00:51:00,77.5,74.7,30.01,WNW,292,4.0,6.0,91,0.00,,,0.00,WUHU216DAVISVP2,2013-09-06 04:51:00,
2013-09-06 00:56:00,77.4,74.6,30.01,WNW,289,6.0,7.0,91,0.00,,,0.00,WUHU216DAVISVP2,2013-09-06 04:56:00,
2013-09-06 01:01:00,77.4,74.6,30.01,WNW,285,3.0,7.0,91,0.00,,,0.00,WUHU216DAVISVP2,2013-09-06 05:01:00,
2013-09-06 01:06:00,77.3,74.5,30.02,WNW,303,4.0,7.0,91,0.00,,,0.00,WUHU216DAVISVP2,2013-09-06 05:06:00,
2013-09-06 01:11:00,77.2,74.7,30.01,WNW,287,4.0,7.0,92,0.00,,,0.00,WUHU216DAVISVP2,2013-09-06 05:11:00,
2013-09-06 01:16:00,77.3,74.8,30.02,WNW,283,4.0,7.0,92,0.00,,,0.00,WUHU216DAVISVP2,2013-09-06 05:16:00,
2013-09-06 01:21:00,77.3,74.8,30.01,WNW,297,6.0,8.0,92,0.00,,,0.00,WUHU216DAVISVP2,2013-09-06 05:21:00,
2013-09-06 01:26:00,77.4,74.9,30.01,WNW,291,6.0,8.0,92,0.00,,,0.00,WUHU216DAVISVP2,2013-09-06 05:26:00,
2013-09-06 01:31:00,77.3,74.8,30.01,WNW,295,6.0,8.0,92,0.00,,,0.00,WUHU216DAVISVP2,2013-09-06 05:31:00,
2013-09-06 01:36:00,77.2,74.7,30.01,WNW,286,6.0,8.0,92,0.00,,,0.00,WUHU216DAVISVP2,2013-09-06 05:36:00,
2013-09-06 01:41:00,77.1,74.6,30.01,WNW,284,5.0,8.0,92,0.00,,,0.00,WUHU216DAVISVP2,2013-09-06 05:41:00,
2013-09-06 01:46:00,77.1,74.9,30.01,WNW,289,6.0,9.0,93,0.00,,,0.00,WUHU216DAVISVP2,2013-09-06 05:46:00,
2013-09-06 01:51:00,77.0,74.8,30.01,WNW,303,6.0,9.0,93,0.00,,,0.00,WUHU216DAVISVP2,2013-09-06 05:51:00,
2013-09-06 01:56:00,77.0,74.8,30.01,NNW,338,5.0,9.0,93,0.00,,,0.00,WUHU216DAVISVP2,2013-09-06 05:56:00,
2013-09-06 02:01:00,76.8,74.6,30.01,WNW,284,6.0,8.0,93,0.00,,,0.00,WUHU216DAVISVP2,2013-09-06 06:01:00,
2013-09-06 02:06:00,76.6,74.4,30.01,NW,311,7.0,9.0,93,0.00,,,0.00,WUHU216DAVISVP2,2013-09-06 06:06:00,
2013-09-06 02:11:00,76.4,74.2,30.01,WNW,295,5.0,10.0,93,0.00,,,0.00,WUHU216DAVISVP2,2013-09-06 06:11:00,
2013-09-06 02:16:00,76.2,74.0,30.00,West,274,6.0,10.0,93,0.00,,,0.00,WUHU216DAVISVP2,2013-09-06 06:16:00,
2013-09-06 02:21:00,76.0,73.8,30.00,NW,306,4.0,10.0,93,0.00,,,0.00,WUHU216DAVISVP2,2013-09-06 06:21:00,
2013-09-06 02:26:00,75.9,73.7,30.00,NW,309,5.0,10.0,93,0.00,,,0.00,WUHU216DAVISVP2,2013-09-06 06:26:00,
2013-09-06 02:31:00,75.7,73.5,30.00,WNW,288,6.0,9.0,93,0.00,,,0.00,WUHU216DAVISVP2,2013-09-06 06:31:00,
2013-09-06 02:36:00,75.7,73.5,30.00,NW,325,3.0,8.0,93,0.00,,,0.00,WUHU216DAVISVP2,2013-09-06 06:36:00,
2013-09-06 02:41:00,75.6,73.4,30.00,WNW,297,5.0,9.0,93,0.00,,,0.00,WUHU216DAVISVP2,2013-09-06 06:41:00,
2013-09-06 02:46:00,75.6,73.4,30.00,WNW,288,5.0,9.0,93,0.00,,,0.00,WUHU216DAVISVP2,2013-09-06 06:46:00,
2013-09-06 02:51:00,75.5,73.0,30.00,NNW,328,4.0,9.0,92,0.00,,,0.00,WUHU216DAVISVP2,2013-09-06 06:51:00,
2013-09-06 02:56:00,75.5,73.0,30.00,WNW,302,3.0,9.0,92,0.00,,,0.00,WUHU216DAVISVP2,2013-09-06 06:56:00,
2013-09-06 03:01:00,75.5,73.0,30.00,NW,319,5.0,8.0,92,0.00,,,0.00,WUHU216DAVISVP2,2013-09-06 07:01:00,
2013-09-06 03:06:00,75.6,73.1,30.00,NW,316,5.0,8.0,92,0.00,,,0.00,WUHU216DAVISVP2,2013-09-06 07:06:00,
2013-09-06 03:11:00,75.6,73.1,30.00,NNW,348,6.0,8.0,92,0.00,,,0.00,WUHU216DAVISVP2,2013-09-06 07:11:00,
2013-09-06 03:16:00,75.6,73.1,30.00,NW,316,5.0,8.0,92,0.00,,,0.00,WUHU216DAVISVP2,2013-09-06 07:16:00,
2013-09-06 03:21:00,75.5,72.7,30.00,NW,319,5.0,10.0,91,0.00,,,0.00,WUHU216DAVISVP2,2013-09-06 07:21:00,
2013-09-06 03:26:00,75.4,72.6,30.00,NW,316,6.0,10.0,91,0.00,,,0.00,WUHU216DAVISVP2,2013-09-06 07:26:00,
2013-09-06 03:31:00,75.4,72.3,30.00,NW,323,8.0,10.0,90,0.00,,,0.00,WUHU216DAVISVP2,2013-09-06 07:31:00,
2013-09-06 03:36:00,75.4,72.3,30.00,NNW,327,5.0,10.0,90,0.00,,,0.00,WUHU216DAVISVP2,2013-09-06 07:36:00,
2013-09-06 03:41:00,75.3,72.2,30.00,NW,309,5.0,9.0,90,0.00,,,0.00,WUHU216DAVISVP2,2013-09-06 07:41:00,
2013-09-06 03:46:00,75.2,71.7,30.00,NW,309,6.0,9.0,89,0.00,,,0.00,WUHU216DAVISVP2,2013-09-06 07:46:00,
2013-09-06 03:51:00,75.1,71.3,30.00,WNW,290,6.0,9.0,88,0.00,,,0.00,WUHU216DAVISVP2,2013-09-06 07:51:00,
2013-09-06 03:56:00,75.1,71.0,30.00,NW,324,4.0,9.0,87,0.00,,,0.00,WUHU216DAVISVP2,2013-09-06 07:56:00,
2013-09-06 04:01:00,75.1,70.7,30.00,NNW,342,2.0,8.0,86,0.00,,,0.00,WUHU216DAVISVP2,2013-09-06 08:01:00,
2013-09-06 04:06:00,75.1,70.6,30.00,NNW,329,2.0,8.0,86,0.00,,,0.00,WUHU216DAVISVP2,2013-09-06 08:06:00,
2013-09-06 04:11:00,75.0,70.5,30.00,North,1,2.0,8.0,86,0.00,,,0.00,WUHU216DAVISVP2,2013-09-06 08:11:00,
2013-09-06 04:16:00,74.9,70.1,30.00,North,358,2.0,7.0,85,0.00,,,0.00,WUHU216DAVISVP2,2013-09-06 08:16:00,
2013-09-06 04:21:00,74.9,70.1,30.00,NW,326,1.0,5.0,85,0.00,,,0.00,WUHU216DAVISVP2,2013-09-06 08:21:00,
2013-09-06 04:26:00,74.8,70.0,30.00,NW,323,2.0,4.0,85,0.00,,,0.00,WUHU216DAVISVP2,2013-09-06 08:26:00,
2013-09-06 04:31:00,74.6,69.8,30.00,NW,321,2.0,4.0,85,0.00,,,0.00,WUHU216DAVISVP2,2013-09-06 08:31:00,
2013-09-06 04:36:00,74.5,69.7,30.00,NNW,328,5.0,5.0,85,0.00,,,0.00,WUHU216DAVISVP2,2013-09-06 08:36:00,
2013-09-06 04:41:00,74.2,69.4,30.00,NW,305,6.0,7.0,85,0.00,,,0.00,WUHU216DAVISVP2,2013-09-06 08:41:00,
2013-09-06 04:46:00,74.1,69.7,30.00,NW,311,5.0,7.0,86,0.00,,,0.00,WUHU216DAVISVP2,2013-09-06 08:46:00,
2013-09-06 04:51:00,74.2,69.8,30.00,NNW,328,4.0,7.0,86,0.00,,,0.00,WUHU216DAVISVP2,2013-09-06 08:51:00,
2013-09-06 04:56:00,74.2,69.4,30.00,NNW,338,8.0,9.0,85,0.00,,,0.00,WUHU216DAVISVP2,2013-09-06 08:56:00,
2013-09-06 05:01:00,74.4,69.3,30.00,NW,317,5.0,9.0,84,0.00,,,0.00,WUHU216DAVISVP2,2013-09-06 09:01:00,
2013-09-06 05:06:00,74.5,69.3,30.01,WNW,302,5.0,9.0,84,0.00,,,0.00,WUHU216DAVISVP2,2013-09-06 09:06:00,
2013-09-06 05:11:00,74.5,69.3,30.01,NW,322,7.0,9.0,84,0.00,,,0.00,WUHU216DAVISVP2,2013-09-06 09:11:00,
2013-09-06 05:16:00,74.6,69.5,30.01,NW,316,8.0,9.0,84,0.00,,,0.00,WUHU216DAVISVP2,2013-09-06 09:16:00,
2013-09-06 05:21:00,74.5,69.4,30.01,NW,311,9.0,10.0,84,0.00,,,0.00,WUHU216DAVISVP2,2013-09-06 09:21:00,
2013-09-06 05:26:00,74.4,69.0,30.01,NW,318,6.0,10.0,83,0.00,,,0.00,WUHU216DAVISVP2,2013-09-06 09:26:00,
2013-09-06 05:31:00,74.2,68.8,30.01,NNW,333,5.0,10.0,83,0.00,,,0.00,WUHU216DAVISVP2,2013-09-06 09:31:00,
2013-09-06 05:36:00,74.0,68.6,30.01,NW,308,4.0,10.0,83,0.00,,,0.00,WUHU216DAVISVP2,2013-09-06 09:36:00,
2013-09-06 05:41:00,73.7,68.3,30.01,WNW,300,3.0,10.0,83,0.00,,,0.00,WUHU216DAVISVP2,2013-09-06 09:41:00,
2013-09-06 05:46:00,73.6,68.2,30.01,WNW,302,4.0,8.0,83,0.00,,,0.00,WUHU216DAVISVP2,2013-09-06 09:46:00,
2013-09-06 05:51:00,73.3,67.9,30.01,NW,322,5.0,8.0,83,0.00,,,0.00,WUHU216DAVISVP2,2013-09-06 09:51:00,
2013-09-06 05:56:00,73.2,67.7,30.01,NW,311,2.0,7.0,83,0.00,,,0.00,WUHU216DAVISVP2,2013-09-06 09:56:00,
2013-09-06 06:01:00,73.0,67.5,30.01,NNE,17,3.0,6.0,83,0.00,,,0.00,WUHU216DAVISVP2,2013-09-06 10:01:00,
2013-09-06 06:06:00,72.9,67.4,30.01,NW,309,4.0,7.0,83,0.00,,,0.00,WUHU216DAVISVP2,2013-09-06 10:06:00,
2013-09-06 06:11:00,72.8,67.4,30.01,NNW,334,5.0,8.0,83,0.00,,,0.00,WUHU216DAVISVP2,2013-09-06 10:11:00,
2013-09-06 06:16:00,72.8,67.1,30.01,NNW,327,3.0,9.0,82,0.00,,,0.00,WUHU216DAVISVP2,2013-09-06 10:16:00,
2013-09-06 06:21:00,72.7,67.0,30.01,North,352,3.0,9.0,82,0.00,,,0.00,WUHU216DAVISVP2,2013-09-06 10:21:00,
2013-09-06 06:26:00,72.6,66.9,30.01,NW,325,3.0,9.0,82,0.00,,,0.00,WUHU216DAVISVP2,2013-09-06 10:26:00,
2013-09-06 06:31:00,72.5,66.8,30.01,NNW,329,7.0,9.0,82,0.00,,,0.00,WUHU216DAVISVP2,2013-09-06 10:31:00,
2013-09-06 06:36:00,72.3,66.6,30.02,North,354,6.0,8.0,82,0.00,,,0.00,WUHU216DAVISVP2,2013-09-06 10:36:00,
2013-09-06 06:41:00,72.2,66.5,30.02,North,5,5.0,8.0,82,0.00,,,0.00,WUHU216DAVISVP2,2013-09-06 10:41:00,
2013-09-06 06:46:00,72.2,66.4,30.02,NNW,336,5.0,8.0,82,0.00,,,0.00,WUHU216DAVISVP2,2013-09-06 10:46:00,
2013-09-06 06:51:00,72.1,66.3,30.02,NW,326,5.0,8.0,82,0.00,,,0.00,WUHU216DAVISVP2,2013-09-06 10:51:00,
2013-09-06 06:56:00,72.0,66.3,30.02,NW,322,5.0,8.0,82,0.00,,,0.00,WUHU216DAVISVP2,2013-09-06 10:56:00,
2013-09-06 07:01:00,71.9,66.2,30.02,NW,321,8.0,10.0,82,0.00,,,0.00,WUHU216DAVISVP2,2013-09-06 11:01:00,
2013-09-06 07:06:00,71.9,66.2,30.02,NW,321,4.0,11.0,82,0.00,,,0.00,WUHU216DAVISVP2,2013-09-06 11:06:00,
2013-09-06 07:11:00,71.9,65.8,30.03,NNW,340,2.0,11.0,81,0.00,,,0.00,WUHU216DAVISVP2,2013-09-06 11:11:00,
2013-09-06 07:16:00,71.9,65.8,30.03,NNW,331,4.0,11.0,81,0.00,,,0.00,WUHU216DAVISVP2,2013-09-06 11:16:00,
2013-09-06 07:21:00,72.0,65.9,30.03,NNW,337,2.0,11.0,81,0.00,,,0.00,WUHU216DAVISVP2,2013-09-06 11:21:00,
2013-09-06 07:26:00,72.0,65.9,30.03,NW,321,3.0,8.0,81,0.00,,,0.00,WUHU216DAVISVP2,2013-09-06 11:26:00,
2013-09-06 07:31:00,72.2,65.7,30.03,NW,319,3.0,8.0,80,0.00,,,0.00,WUHU216DAVISVP2,2013-09-06 11:31:00,
2013-09-06 07:36:00,72.2,65.8,30.03,NNW,328,5.0,8.0,80,0.00,,,0.00,WUHU216DAVISVP2,2013-09-06 11:36:00,
2013-09-06 07:41:00,72.4,66.0,30.04,NW,326,3.0,8.0,80,0.00,,,0.00,WUHU216DAVISVP2,2013-09-06 11:41:00,
2013-09-06 07:46:00,72.7,66.3,30.04,WNW,298,5.0,9.0,80,0.00,,,0.00,WUHU216DAVISVP2,2013-09-06 11:46:00,
2013-09-06 07:51:00,72.9,66.1,30.04,North,4,2.0,9.0,79,0.00,,,0.00,WUHU216DAVISVP2,2013-09-06 11:51:00,
2013-09-06 07:56:00,73.1,66.3,30.04,NNE,19,5.0,9.0,79,0.00,,,0.00,WUHU216DAVISVP2,2013-09-06 11:56:00,
2013-09-06 08:01:00,73.2,66.0,30.04,NNW,348,3.0,9.0,78,0.00,,,0.00,WUHU216DAVISVP2,2013-09-06 12:01:00,
2013-09-06 08:06:00,73.2,65.9,30.04,North,8,8.0,11.0,78,0.00,,,0.00,WUHU216DAVISVP2,2013-09-06 12:06:00,
2013-09-06 08:11:00,73.2,65.9,30.04,NNE,12,6.0,12.0,78,0.00,,,0.00,WUHU216DAVISVP2,2013-09-06 12:11:00,
2013-09-06 08:16:00,73.1,66.3,30.04,NNW,333,4.0,12.0,79,0.00,,,0.00,WUHU216DAVISVP2,2013-09-06 12:16:00,
2013-09-06 08:21:00,73.0,66.2,30.05,NNW,329,7.0,12.0,79,0.00,,,0.00,WUHU216DAVISVP2,2013-09-06 12:21:00,
2013-09-06 08:26:00,72.9,66.1,30.05,NW,316,4.0,12.0,79,0.00,,,0.00,WUHU216DAVISVP2,2013-09-06 12:26:00,
2013-09-06 08:31:00,72.8,66.3,30.05,North,8,8.0,10.0,80,0.00,,,0.00,WUHU216DAVISVP2,2013-09-06 12:31:00,
2013-09-06 08:36:00,72.8,66.4,30.05,NNW,334,3.0,12.0,80,0.00,,,0.00,WUHU216DAVISVP2,2013-09-06 12:36:00,
2013-09-06 08:41:00,72.9,66.5,30.04,NNW,327,4.0,13.0,80,0.00,,,0.00,WUHU216DAVISVP2,2013-09-06 12:41:00,
2013-09-06 08:46:00,73.1,66.7,30.04,North,8,8.0,13.0,80,0.00,,,0.00,WUHU216DAVISVP2,2013-09-06 12:46:00,
2013-09-06 08:51:00,73.3,67.2,30.04,NNW,345,9.0,15.0,81,0.00,,,0.00,WUHU216DAVISVP2,2013-09-06 12:51:00,
2013-09-06 08:56:00,73.4,67.3,30.04,NW,323,8.0,15.0,81,0.00,,,0.00,WUHU216DAVISVP2,2013-09-06 12:56:00,
2013-09-06 09:01:00,73.6,67.8,30.05,North,351,5.0,15.0,82,0.00,,,0.00,WUHU216DAVISVP2,2013-09-06 13:01:00,
2013-09-06 09:06:00,74.0,68.2,30.05,NE,44,7.0,14.0,82,0.00,,,0.00,WUHU216DAVISVP2,2013-09-06 13:06:00,
2013-09-06 09:11:00,74.2,68.4,30.05,NNE,13,14.0,16.0,82,0.00,,,0.00,WUHU216DAVISVP2,2013-09-06 13:11:00,
2013-09-06 09:16:00,74.6,68.8,30.05,North,8,4.0,16.0,82,0.00,,,0.00,WUHU216DAVISVP2,2013-09-06 13:16:00,
2013-09-06 09:21:00,75.5,69.3,30.05,NNE,20,10.0,16.0,81,0.00,,,0.00,WUHU216DAVISVP2,2013-09-06 13:21:00,
2013-09-06 09:26:00,75.8,69.6,30.05,NE,46,11.0,16.0,81,0.00,,,0.00,WUHU216DAVISVP2,2013-09-06 13:26:00,
2013-09-06 09:31:00,76.0,69.8,30.05,NE,47,15.0,18.0,81,0.00,,,0.00,WUHU216DAVISVP2,2013-09-06 13:31:00,
2013-09-06 09:36:00,76.4,70.6,30.05,ENE,62,12.0,18.0,82,0.00,,,0.00,WUHU216DAVISVP2,2013-09-06 13:36:00,
2013-09-06 09:41:00,76.6,70.4,30.05,NNE,23,12.0,20.0,81,0.00,,,0.00,WUHU216DAVISVP2,2013-09-06 13:41:00,
2013-09-06 09:46:00,77.1,70.9,30.06,NE,38,12.0,20.0,81,0.00,,,0.00,WUHU216DAVISVP2,2013-09-06 13:46:00,
2013-09-06 09:51:00,77.2,71.0,30.06,NE,41,17.0,21.0,81,0.00,,,0.00,WUHU216DAVISVP2,2013-09-06 13:51:00,
2013-09-06 09:56:00,77.1,71.3,30.06,NE,34,20.0,21.0,82,0.00,,,0.00,WUHU216DAVISVP2,2013-09-06 13:56:00,
2013-09-06 10:01:00,76.9,71.4,30.06,North,10,8.0,21.0,83,0.00,,,0.00,WUHU216DAVISVP2,2013-09-06 14:01:00,
2013-09-06 10:06:00,77.2,71.4,30.06,NNE,33,14.0,21.0,82,0.00,,,0.00,WUHU216DAVISVP2,2013-09-06 14:06:00,
2013-09-06 10:11:00,77.5,71.7,30.06,NNE,21,11.0,20.0,82,0.00,,,0.00,WUHU216DAVISVP2,2013-09-06 14:11:00,
2013-09-06 10:16:00,77.6,71.7,30.06,NNE,19,16.0,20.0,82,0.00,,,0.00,WUHU216DAVISVP2,2013-09-06 14:16:00,
2013-09-06 10:21:00,78.1,71.8,30.06,NE,38,18.0,20.0,81,0.00,,,0.00,WUHU216DAVISVP2,2013-09-06 14:21:00,
2013-09-06 10:26:00,78.3,72.3,30.06,NE,35,12.0,20.0,82,0.00,,,0.00,WUHU216DAVISVP2,2013-09-06 14:26:00,
2013-09-06 10:31:00,78.6,72.6,30.06,NE,50,16.0,20.0,82,0.00,,,0.00,WUHU216DAVISVP2,2013-09-06 14:31:00,
2013-09-06 10:36:00,78.6,72.7,30.06,NE,46,15.0,19.0,82,0.00,,,0.00,WUHU216DAVISVP2,2013-09-06 14:36:00,
2013-09-06 10:41:00,78.6,72.4,30.06,NE,51,18.0,19.0,81,0.00,,,0.00,WUHU216DAVISVP2,2013-09-06 14:41:00,
2013-09-06 10:46:00,78.9,72.7,30.06,NE,34,15.0,19.0,81,0.00,,,0.00,WUHU216DAVISVP2,2013-09-06 14:46:00,
2013-09-06 10:51:00,79.2,73.0,30.06,NE,49,13.0,22.0,81,0.00,,,0.00,WUHU216DAVISVP2,2013-09-06 14:51:00,
2013-09-06 10:56:00,79.3,73.4,30.06,NE,41,11.0,22.0,82,0.00,,,0.00,WUHU216DAVISVP2,2013-09-06 14:56:00,
2013-09-06 11:01:00,79.2,73.0,30.06,NNE,32,10.0,22.0,81,0.00,,,0.00,WUHU216DAVISVP2,2013-09-06 15:01:00,
2013-09-06 11:06:00,79.2,73.0,30.07,NE,37,17.0,18.0,81,0.00,,,0.00,WUHU216DAVISVP2,2013-09-06 15:06:00,
2013-09-06 11:11:00,79.2,73.0,30.07,NE,37,13.0,18.0,81,0.00,,,0.00,WUHU216DAVISVP2,2013-09-06 15:11:00,
2013-09-06 11:16:00,79.1,73.6,30.07,NE,43,15.0,18.0,83,0.00,,,0.00,WUHU216DAVISVP2,2013-09-06 15:16:00,
2013-09-06 11:21:00,79.3,73.8,30.07,NE,36,8.0,18.0,83,0.00,,,0.00,WUHU216DAVISVP2,2013-09-06 15:21:00,
2013-09-06 11:26:00,79.5,74.3,30.07,NE,41,15.0,18.0,84,0.00,,,0.00,WUHU216DAVISVP2,2013-09-06 15:26:00,
2013-09-06 11:31:00,79.4,74.5,30.07,NE,44,9.0,19.0,85,0.00,,,0.00,WUHU216DAVISVP2,2013-09-06 15:31:00,
2013-09-06 11:36:00,79.7,74.2,30.07,NE,53,16.0,19.0,83,0.00,,,0.00,WUHU216DAVISVP2,2013-09-06 15:36:00,
2013-09-06 11:41:00,80.0,74.4,30.07,NE,39,11.0,19.0,83,0.00,,,0.00,WUHU216DAVISVP2,2013-09-06 15:41:00,
2013-09-06 11:46:00,80.1,74.9,30.07,NE,54,16.0,19.0,84,0.00,,,0.00,WUHU216DAVISVP2,2013-09-06 15:46:00,
2013-09-06 11:51:00,80.3,75.1,30.07,NE,41,15.0,19.0,84,0.00,,,0.00,WUHU216DAVISVP2,2013-09-06 15:51:00,
2013-09-06 11:56:00,80.2,74.3,30.07,ENE,60,14.0,19.0,82,0.00,,,0.00,WUHU216DAVISVP2,2013-09-06 15:56:00,
2013-09-06 12:01:00,80.0,74.4,30.07,NE,56,18.0,19.0,83,0.00,,,0.00,WUHU216DAVISVP2,2013-09-06 16:01:00,
2013-09-06 12:06:00,79.9,74.7,30.07,NE,49,15.0,19.0,84,0.00,,,0.00,WUHU216DAVISVP2,2013-09-06 16:06:00,
2013-09-06 12:11:00,80.1,74.5,30.07,NE,35,14.0,19.0,83,0.00,,,0.00,WUHU216DAVISVP2,2013-09-06 16:11:00,
2013-09-06 12:16:00,80.2,74.2,30.07,NE,48,16.0,19.0,82,0.00,,,0.00,WUHU216DAVISVP2,2013-09-06 16:16:00,
2013-09-06 12:21:00,80.3,74.3,30.07,ENE,63,18.0,19.0,82,0.00,,,0.00,WUHU216DAVISVP2,2013-09-06 16:21:00,
2013-09-06 12:26:00,80.2,74.2,30.07,ENE,57,16.0,19.0,82,0.00,,,0.00,WUHU216DAVISVP2,2013-09-06 16:26:00,
2013-09-06 12:31:00,80.3,74.4,30.07,NE,48,16.0,19.0,82,0.00,,,0.00,WUHU216DAVISVP2,2013-09-06 16:31:00,
2013-09-06 12:36:00,80.2,74.6,30.07,NE,51,14.0,19.0,83,0.00,,,0.00,WUHU216DAVISVP2,2013-09-06 16:36:00,
2013-09-06 12:41:00,80.1,73.8,30.07,NE,49,15.0,17.0,81,0.00,,,0.00,WUHU216DAVISVP2,2013-09-06 16:41:00,
2013-09-06 12:46:00,80.1,74.2,30.07,NE,37,14.0,18.0,82,0.00,,,0.00,WUHU216DAVISVP2,2013-09-06 16:46:00,
2013-09-06 12:51:00,80.6,74.3,30.07,ENE,58,13.0,18.0,81,0.00,,,0.00,WUHU216DAVISVP2,2013-09-06 16:51:00,
2013-09-06 12:56:00,80.5,74.6,30.06,NE,47,14.0,18.0,82,0.00,,,0.00,WUHU216DAVISVP2,2013-09-06 16:56:00,
2013-09-06 13:01:00,80.6,74.3,30.06,NE,51,16.0,18.0,81,0.00,,,0.00,WUHU216DAVISVP2,2013-09-06 17:01:00,
2013-09-06 13:06:00,80.4,74.4,30.06,ENE,64,13.0,18.0,82,0.00,,,0.00,WUHU216DAVISVP2,2013-09-06 17:06:00,
2013-09-06 13:11:00,80.6,75.0,30.06,ENE,58,11.0,18.0,83,0.00,,,0.00,WUHU216DAVISVP2,2013-09-06 17:11:00,
2013-09-06 13:16:00,80.8,74.9,30.06,NE,56,14.0,18.0,82,0.00,,,0.00,WUHU216DAVISVP2,2013-09-06 17:16:00,
2013-09-06 13:21:00,81.1,74.8,30.06,NE,49,14.0,17.0,81,0.00,,,0.00,WUHU216DAVISVP2,2013-09-06 17:21:00,
2013-09-06 13:26:00,81.1,74.5,30.06,NE,50,14.0,17.0,80,0.00,,,0.00,WUHU216DAVISVP2,2013-09-06 17:26:00,
2013-09-06 13:31:00,81.0,74.7,30.06,NE,49,14.0,17.0,81,0.00,,,0.00,WUHU216DAVISVP2,2013-09-06 17:31:00,
2013-09-06 13:36:00,81.2,74.6,30.06,NE,43,12.0,16.0,80,0.00,,,0.00,WUHU216DAVISVP2,2013-09-06 17:36:00,
2013-09-06 13:41:00,81.3,74.7,30.05,NNE,29,14.0,17.0,80,0.00,,,0.00,WUHU216DAVISVP2,2013-09-06 17:41:00,
2013-09-06 13:46:00,81.3,74.7,30.05,NE,53,14.0,17.0,80,0.00,,,0.00,WUHU216DAVISVP2,2013-09-06 17:46:00,
2013-09-06 13:51:00,81.2,74.1,30.05,ENE,60,13.0,18.0,79,0.00,,,0.00,WUHU216DAVISVP2,2013-09-06 17:51:00,
2013-09-06 13:56:00,81.3,74.3,30.05,NE,46,13.0,18.0,79,0.00,,,0.00,WUHU216DAVISVP2,2013-09-06 17:56:00,
2013-09-06 14:01:00,81.6,74.9,30.05,NE,55,16.0,18.0,80,0.00,,,0.00,WUHU216DAVISVP2,2013-09-06 18:01:00,
2013-09-06 14:06:00,81.8,74.8,30.04,ENE,66,11.0,18.0,79,0.00,,,0.00,WUHU216DAVISVP2,2013-09-06 18:06:00,
2013-09-06 14:11:00,81.6,74.2,30.04,ENE,65,11.0,17.0,78,0.00,,,0.00,WUHU216DAVISVP2,2013-09-06 18:11:00,
2013-09-06 14:16:00,81.9,75.2,30.04,NE,50,11.0,17.0,80,0.00,,,0.00,WUHU216DAVISVP2,2013-09-06 18:16:00,
2013-09-06 14:21:00,81.9,74.4,30.04,ENE,60,14.0,17.0,78,0.00,,,0.00,WUHU216DAVISVP2,2013-09-06 18:21:00,
2013-09-06 14:26:00,81.8,74.6,30.04,ENE,72,14.0,17.0,79,0.00,,,0.00,WUHU216DAVISVP2,2013-09-06 18:26:00,
2013-09-06 14:31:00,81.9,74.1,30.04,East,90,13.0,17.0,77,0.00,,,0.00,WUHU216DAVISVP2,2013-09-06 18:31:00,
2013-09-06 14:36:00,82.0,74.6,30.04,ENE,70,11.0,17.0,78,0.00,,,0.00,WUHU216DAVISVP2,2013-09-06 18:36:00,
2013-09-06 14:41:00,81.9,74.5,30.04,ENE,71,17.0,17.0,78,0.00,,,0.00,WUHU216DAVISVP2,2013-09-06 18:41:00,
2013-09-06 14:46:00,82.3,74.9,30.04,ENE,75,12.0,17.0,78,0.00,,,0.00,WUHU216DAVISVP2,2013-09-06 18:46:00,
2013-09-06 14:51:00,82.2,75.2,30.04,East,88,11.0,17.0,79,0.00,,,0.00,WUHU216DAVISVP2,2013-09-06 18:51:00,
2013-09-06 14:56:00,82.0,74.2,30.03,NE,55,11.0,18.0,77,0.00,,,0.00,WUHU216DAVISVP2,2013-09-06 18:56:00,
2013-09-06 15:01:00,82.1,74.3,30.03,ENE,63,16.0,18.0,77,0.00,,,0.00,WUHU216DAVISVP2,2013-09-06 19:01:00,
2013-09-06 15:06:00,82.0,74.1,30.03,ENE,62,15.0,18.0,77,0.00,,,0.00,WUHU216DAVISVP2,2013-09-06 19:06:00,
2013-09-06 15:11:00,82.0,74.6,30.03,ENE,68,14.0,18.0,78,0.00,,,0.00,WUHU216DAVISVP2,2013-09-06 19:11:00,
2013-09-06 15:16:00,82.0,73.9,30.03,ENE,63,8.0,18.0,76,0.00,,,0.00,WUHU216DAVISVP2,2013-09-06 19:16:00,
2013-09-06 15:21:00,82.1,74.3,30.03,ENE,75,12.0,18.0,77,0.00,,,0.00,WUHU216DAVISVP2,2013-09-06 19:21:00,
2013-09-06 15:26:00,82.2,74.3,30.03,ENE,75,17.0,18.0,77,0.00,,,0.00,WUHU216DAVISVP2,2013-09-06 19:26:00,
2013-09-06 15:31:00,82.3,74.9,30.03,ESE,119,13.0,18.0,78,0.00,,,0.00,WUHU216DAVISVP2,2013-09-06 19:31:00,
2013-09-06 15:36:00,82.1,74.0,30.02,East,84,12.0,17.0,76,0.00,,,0.00,WUHU216DAVISVP2,2013-09-06 19:36:00,
2013-09-06 15:41:00,82.2,73.7,30.02,ENE,66,16.0,17.0,75,0.00,,,0.00,WUHU216DAVISVP2,2013-09-06 19:41:00,
2013-09-06 15:46:00,82.3,74.4,30.02,NE,53,14.0,17.0,77,0.00,,,0.00,WUHU216DAVISVP2,2013-09-06 19:46:00,
2013-09-06 15:51:00,82.1,74.0,30.02,NNW,330,12.0,17.0,76,0.00,,,0.00,WUHU216DAVISVP2,2013-09-06 19:51:00,
2013-09-06 15:56:00,82.2,74.4,30.01,ESE,103,13.0,17.0,77,0.00,,,0.00,WUHU216DAVISVP2,2013-09-06 19:56:00,
2013-09-06 16:01:00,82.1,74.0,30.01,ESE,122,9.0,17.0,76,0.00,,,0.00,WUHU216DAVISVP2,2013-09-06 20:01:00,
2013-09-06 16:06:00,82.2,74.3,30.01,ENE,71,9.0,17.0,77,0.00,,,0.00,WUHU216DAVISVP2,2013-09-06 20:06:00,
2013-09-06 16:11:00,82.2,74.3,30.01,ESE,115,11.0,16.0,77,0.00,,,0.00,WUHU216DAVISVP2,2013-09-06 20:11:00,
2013-09-06 16:16:00,82.5,74.7,30.01,NNE,25,10.0,16.0,77,0.00,,,0.00,WUHU216DAVISVP2,2013-09-06 20:16:00,
2013-09-06 16:21:00,82.3,74.2,30.01,East,90,9.0,16.0,76,0.00,,,0.00,WUHU216DAVISVP2,2013-09-06 20:21:00,
2013-09-06 16:26:00,82.4,73.9,30.00,East,91,11.0,16.0,75,0.00,,,0.00,WUHU216DAVISVP2,2013-09-06 20:26:00,
2013-09-06 16:31:00,82.3,73.4,30.00,East,89,11.0,16.0,74,0.00,,,0.00,WUHU216DAVISVP2,2013-09-06 20:31:00,
2013-09-06 16:36:00,82.4,73.7,30.00,NE,54,11.0,16.0,75,0.00,,,0.00,WUHU216DAVISVP2,2013-09-06 20:36:00,
2013-09-06 16:41:00,82.4,73.9,30.00,East,94,9.0,15.0,75,0.00,,,0.00,WUHU216DAVISVP2,2013-09-06 20:41:00,
2013-09-06 16:46:00,82.4,74.2,30.00,NE,48,12.0,15.0,76,0.00,,,0.00,WUHU216DAVISVP2,2013-09-06 20:46:00,
2013-09-06 16:51:00,82.4,74.6,30.00,East,94,10.0,15.0,77,0.00,,,0.00,WUHU216DAVISVP2,2013-09-06 20:51:00,
2013-09-06 16:56:00,82.2,74.3,30.00,East,88,11.0,15.0,77,0.00,,,0.00,WUHU216DAVISVP2,2013-09-06 20:56:00,
2013-09-06 17:01:00,82.1,74.3,30.00,ESE,103,12.0,15.0,77,0.00,,,0.00,WUHU216DAVISVP2,2013-09-06 21:01:00,
2013-09-06 17:06:00,82.0,74.2,30.00,ENE,67,11.0,15.0,77,0.00,,,0.00,WUHU216DAVISVP2,2013-09-06 21:06:00,
2013-09-06 17:11:00,81.9,73.4,30.00,ENE,67,10.0,14.0,75,0.00,,,0.00,WUHU216DAVISVP2,2013-09-06 21:11:00,
2013-09-06 17:16:00,82.1,74.7,30.00,East,79,12.0,15.0,78,0.00,,,0.00,WUHU216DAVISVP2,2013-09-06 21:16:00,
2013-09-06 17:21:00,82.0,74.6,30.00,SE,127,10.0,15.0,78,0.00,,,0.00,WUHU216DAVISVP2,2013-09-06 21:21:00,
2013-09-06 17:26:00,81.8,73.1,30.00,NNE,30,8.0,15.0,75,0.00,,,0.00,WUHU216DAVISVP2,2013-09-06 21:26:00,
2013-09-06 17:31:00,81.8,73.7,30.00,NE,42,10.0,15.0,76,0.00,,,0.00,WUHU216DAVISVP2,2013-09-06 21:31:00,
2013-09-06 17:36:00,81.8,73.7,30.00,East,89,7.0,15.0,76,0.00,,,0.00,WUHU216DAVISVP2,2013-09-06 21:36:00,
2013-09-06 17:41:00,82.0,73.9,30.00,NNE,26,13.0,15.0,76,0.00,,,0.00,WUHU216DAVISVP2,2013-09-06 21:41:00,
2013-09-06 17:46:00,81.8,73.3,30.00,East,100,11.0,15.0,75,0.00,,,0.00,WUHU216DAVISVP2,2013-09-06 21:46:00,
2013-09-06 17:51:00,81.8,74.0,30.00,ENE,71,10.0,14.0,77,0.00,,,0.00,WUHU216DAVISVP2,2013-09-06 21:51:00,
2013-09-06 17:56:00,81.7,73.9,30.00,NE,50,11.0,14.0,77,0.00,,,0.00,WUHU216DAVISVP2,2013-09-06 21:56:00,
2013-09-06 18:01:00,81.8,75.1,30.00,ENE,78,9.0,14.0,80,0.00,,,0.00,WUHU216DAVISVP2,2013-09-06 22:01:00,
2013-09-06 18:06:00,81.5,74.1,30.00,ENE,60,10.0,14.0,78,0.00,,,0.00,WUHU216DAVISVP2,2013-09-06 22:06:00,
2013-09-06 18:11:00,81.2,73.1,29.99,ENE,72,11.0,15.0,76,0.00,,,0.00,WUHU216DAVISVP2,2013-09-06 22:11:00,
2013-09-06 18:16:00,81.4,74.4,29.99,ENE,67,12.0,15.0,79,0.00,,,0.00,WUHU216DAVISVP2,2013-09-06 22:16:00,
2013-09-06 18:21:00,81.1,74.5,30.00,NNE,25,9.0,15.0,80,0.00,,,0.00,WUHU216DAVISVP2,2013-09-06 22:21:00,
2013-09-06 18:26:00,81.0,74.4,30.00,NE,42,11.0,15.0,80,0.00,,,0.00,WUHU216DAVISVP2,2013-09-06 22:26:00,
2013-09-06 18:31:00,80.9,73.9,30.00,ENE,58,11.0,15.0,79,0.00,,,0.00,WUHU216DAVISVP2,2013-09-06 22:31:00,
2013-09-06 18:36:00,80.9,74.3,30.00,ENE,69,11.0,15.0,80,0.00,,,0.00,WUHU216DAVISVP2,2013-09-06 22:36:00,
2013-09-06 18:41:00,80.8,74.2,29.99,ENE,60,9.0,14.0,80,0.00,,,0.00,WUHU216DAVISVP2,2013-09-06 22:41:00,
2013-09-06 18:46:00,80.7,74.1,29.99,ENE,65,10.0,14.0,80,0.00,,,0.00,WUHU216DAVISVP2,2013-09-06 22:46:00,
2013-09-06 18:51:00,80.7,74.1,30.00,NE,47,8.0,14.0,80,0.00,,,0.00,WUHU216DAVISVP2,2013-09-06 22:51:00,
2013-09-06 18:56:00,80.6,73.6,29.99,ENE,57,9.0,14.0,79,0.00,,,0.00,WUHU216DAVISVP2,2013-09-06 22:56:00,
2013-09-06 19:01:00,80.7,74.1,29.99,ENE,74,12.0,13.0,80,0.00,,,0.00,WUHU216DAVISVP2,2013-09-06 23:01:00,
2013-09-06 19:06:00,80.6,74.0,29.99,NE,44,12.0,15.0,80,0.00,,,0.00,WUHU216DAVISVP2,2013-09-06 23:06:00,
2013-09-06 19:11:00,80.6,74.0,29.99,ENE,67,10.0,15.0,80,0.00,,,0.00,WUHU216DAVISVP2,2013-09-06 23:11:00,
2013-09-06 19:16:00,80.6,74.3,29.99,NE,46,9.0,15.0,81,0.00,,,0.00,WUHU216DAVISVP2,2013-09-06 23:16:00,
2013-09-06 19:21:00,80.5,74.6,30.00,NE,42,15.0,16.0,82,0.00,,,0.00,WUHU216DAVISVP2,2013-09-06 23:21:00,
2013-09-06 19:26:00,79.7,74.2,30.00,NE,49,15.0,22.0,83,0.00,,,0.00,WUHU216DAVISVP2,2013-09-06 23:26:00,
2013-09-06 19:31:00,79.5,74.2,30.00,NNE,32,12.0,22.0,84,0.00,,,0.00,WUHU216DAVISVP2,2013-09-06 23:31:00,
2013-09-06 19:36:00,79.1,73.9,30.00,NE,39,19.0,22.0,84,0.00,,,0.00,WUHU216DAVISVP2,2013-09-06 23:36:00,
2013-09-06 19:41:00,79.2,74.3,30.00,NE,46,22.0,23.0,85,0.00,,,0.00,WUHU216DAVISVP2,2013-09-06 23:41:00,
2013-09-06 19:46:00,79.0,73.7,30.00,NE,44,16.0,23.0,84,0.00,,,0.00,WUHU216DAVISVP2,2013-09-06 23:46:00,
2013-09-06 19:51:00,78.9,74.0,30.00,NE,42,17.0,24.0,85,0.00,,,0.00,WUHU216DAVISVP2,2013-09-06 23:51:00,
2013-09-06 19:56:00,78.6,73.8,30.00,NE,53,20.0,24.0,85,0.00,,,0.00,WUHU216DAVISVP2,2013-09-06 23:56:00,
2013-09-06 20:01:00,78.8,74.3,30.00,NE,36,18.0,24.0,86,0.00,,,0.00,WUHU216DAVISVP2,2013-09-07 00:01:00,
2013-09-06 20:06:00,79.0,74.5,30.00,ENE,60,20.0,24.0,86,0.00,,,0.00,WUHU216DAVISVP2,2013-09-07 00:06:00,
2013-09-06 20:11:00,79.2,74.0,30.01,NE,53,20.0,22.0,84,0.00,,,0.00,WUHU216DAVISVP2,2013-09-07 00:11:00,
2013-09-06 20:16:00,79.4,73.9,30.01,NE,41,17.0,22.0,83,0.00,,,0.00,WUHU216DAVISVP2,2013-09-07 00:16:00,
2013-09-06 20:21:00,79.4,72.8,30.00,ENE,64,19.0,22.0,80,0.00,,,0.00,WUHU216DAVISVP2,2013-09-07 00:21:00,
2013-09-06 20:26:00,79.7,74.5,30.01,ENE,63,24.0,31.0,84,0.00,,,0.00,WUHU216DAVISVP2,2013-09-07 00:26:00,
2013-09-06 20:31:00,78.8,74.0,30.01,NE,41,20.0,31.0,85,0.00,,,0.00,WUHU216DAVISVP2,2013-09-07 00:31:00,
2013-09-06 20:36:00,78.3,74.1,30.02,ENE,65,23.0,31.0,87,0.00,,,0.00,WUHU216DAVISVP2,2013-09-07 00:36:00,
2013-09-06 20:41:00,77.8,73.0,30.02,NE,49,25.0,32.0,85,0.00,,,0.00,WUHU216DAVISVP2,2013-09-07 00:41:00,
2013-09-06 20:46:00,77.5,72.7,30.02,NE,55,24.0,32.0,85,0.00,,,0.00,WUHU216DAVISVP2,2013-09-07 00:46:00,
2013-09-06 20:51:00,77.6,72.1,30.03,East,80,16.0,32.0,83,0.00,,,0.00,WUHU216DAVISVP2,2013-09-07 00:51:00,
2013-09-06 20:56:00,78.0,73.2,30.02,ENE,59,26.0,32.0,85,0.00,,,0.00,WUHU216DAVISVP2,2013-09-07 00:56:00,
2013-09-06 21:01:00,78.1,73.3,30.02,NE,53,24.0,30.0,85,0.00,,,0.00,WUHU216DAVISVP2,2013-09-07 01:01:00,
2013-09-06 21:06:00,78.2,73.7,30.02,ENE,67,19.0,29.0,86,0.00,,,0.00,WUHU216DAVISVP2,2013-09-07 01:06:00,
2013-09-06 21:11:00,78.3,73.4,30.02,NE,49,22.0,29.0,85,0.00,,,0.00,WUHU216DAVISVP2,2013-09-07 01:11:00,
2013-09-06 21:16:00,78.4,73.6,30.02,NE,56,23.0,30.0,85,0.00,,,0.00,WUHU216DAVISVP2,2013-09-07 01:16:00,
2013-09-06 21:21:00,78.6,73.8,30.02,NE,52,25.0,30.0,85,0.00,,,0.00,WUHU216DAVISVP2,2013-09-07 01:21:00,
2013-09-06 21:26:00,78.5,73.7,30.03,NE,38,26.0,30.0,85,0.00,,,0.00,WUHU216DAVISVP2,2013-09-07 01:26:00,
2013-09-06 21:31:00,78.4,73.2,30.02,NE,48,23.0,30.0,84,0.00,,,0.00,WUHU216DAVISVP2,2013-09-07 01:31:00,
2013-09-06 21:36:00,78.5,74.0,30.03,NE,50,27.0,30.0,86,0.00,,,0.00,WUHU216DAVISVP2,2013-09-07 01:36:00,
2013-09-06 21:41:00,78.4,73.6,30.03,NE,56,25.0,31.0,85,0.00,,,0.00,WUHU216DAVISVP2,2013-09-07 01:41:00,
2013-09-06 21:46:00,78.4,73.9,30.03,ENE,58,26.0,31.0,86,0.00,,,0.00,WUHU216DAVISVP2,2013-09-07 01:46:00,
2013-09-06 21:51:00,78.5,73.7,30.03,NE,46,19.0,31.0,85,0.00,,,0.00,WUHU216DAVISVP2,2013-09-07 01:51:00,
2013-09-06 21:56:00,78.3,73.1,30.03,ENE,70,26.0,33.0,84,0.00,,,0.00,WUHU216DAVISVP2,2013-09-07 01:56:00,
2013-09-06 22:01:00,78.4,73.2,30.03,NE,39,25.0,33.0,84,0.00,,,0.00,WUHU216DAVISVP2,2013-09-07 02:01:00,
2013-09-06 22:06:00,78.4,73.6,30.03,NE,51,28.0,33.0,85,0.00,,,0.00,WUHU216DAVISVP2,2013-09-07 02:06:00,
2013-09-06 22:11:00,78.2,73.0,30.03,NE,53,24.0,33.0,84,0.00,,,0.00,WUHU216DAVISVP2,2013-09-07 02:11:00,
2013-09-06 22:16:00,78.1,73.2,30.04,ENE,58,25.0,33.0,85,0.00,,,0.00,WUHU216DAVISVP2,2013-09-07 02:16:00,
2013-09-06 22:21:00,78.1,73.3,30.03,NE,54,29.0,32.0,85,0.00,,,0.00,WUHU216DAVISVP2,2013-09-07 02:21:00,
2013-09-06 22:26:00,78.1,73.3,30.03,NE,53,26.0,30.0,85,0.00,,,0.00,WUHU216DAVISVP2,2013-09-07 02:26:00,
2013-09-06 22:31:00,78.0,73.2,30.03,ENE,57,27.0,30.0,85,0.00,,,0.00,WUHU216DAVISVP2,2013-09-07 02:31:00,
2013-09-06 22:36:00,77.9,73.1,30.03,NE,53,21.0,30.0,85,0.00,,,0.00,WUHU216DAVISVP2,2013-09-07 02:36:00,
2013-09-06 22:41:00,77.9,73.1,30.03,ENE,63,25.0,30.0,85,0.00,,,0.00,WUHU216DAVISVP2,2013-09-07 02:41:00,
2013-09-06 22:46:00,77.9,73.1,30.03,NE,51,25.0,30.0,85,0.00,,,0.00,WUHU216DAVISVP2,2013-09-07 02:46:00,
2013-09-06 22:51:00,77.8,72.9,30.03,NE,49,23.0,31.0,85,0.00,,,0.00,WUHU216DAVISVP2,2013-09-07 02:51:00,
2013-09-06 22:56:00,77.6,72.4,30.03,NE,47,26.0,31.0,84,0.00,,,0.00,WUHU216DAVISVP2,2013-09-07 02:56:00,
2013-09-06 23:01:00,77.7,72.9,30.03,ENE,63,19.0,34.0,85,0.00,,,0.00,WUHU216DAVISVP2,2013-09-07 03:01:00,
2013-09-06 23:06:00,77.5,72.7,30.03,NE,46,26.0,34.0,85,0.00,,,0.00,WUHU216DAVISVP2,2013-09-07 03:06:00,
2013-09-06 23:11:00,77.6,72.8,30.03,NE,44,24.0,34.0,85,0.00,,,0.00,WUHU216DAVISVP2,2013-09-07 03:11:00,
2013-09-06 23:16:00,77.6,72.8,30.03,NE,47,26.0,34.0,85,0.00,,,0.00,WUHU216DAVISVP2,2013-09-07 03:16:00,
2013-09-06 23:21:00,77.6,72.4,30.03,ENE,60,23.0,32.0,84,0.00,,,0.00,WUHU216DAVISVP2,2013-09-07 03:21:00,
2013-09-06 23:26:00,77.5,72.3,30.03,ENE,58,26.0,32.0,84,0.00,,,0.00,WUHU216DAVISVP2,2013-09-07 03:26:00,
2013-09-06 23:31:00,77.5,73.0,30.03,ENE,64,25.0,32.0,86,0.00,,,0.00,WUHU216DAVISVP2,2013-09-07 03:31:00,
2013-09-06 23:36:00,77.5,72.7,30.03,ENE,64,26.0,31.0,85,0.00,,,0.00,WUHU216DAVISVP2,2013-09-07 03:36:00,
2013-09-06 23:41:00,77.4,72.6,30.03,NE,45,25.0,31.0,85,0.00,,,0.00,WUHU216DAVISVP2,2013-09-07 03:41:00,
2013-09-06 23:46:00,77.5,72.7,30.03,NE,49,23.0,32.0,85,0.00,,,0.00,WUHU216DAVISVP2,2013-09-07 03:46:00,
2013-09-06 23:51:00,77.4,72.9,30.03,NE,41,25.0,32.0,86,0.00,,,0.00,WUHU216DAVISVP2,2013-09-07 03:51:00,
2013-09-06 23:56:00,77.4,72.2,30.03,NE,53,20.0,32.0,84,0.00,,,0.00,WUHU216DAVISVP2,2013-09-07 03:56:00,